Location: Kuffner-Sternwarte
(48.2130°N, 16.2960°E)
Time: 22:09:37
(UTC+01:00)

COROT - Pass Details

Date: 13 January 2018
Orbit: 599 x 890 km, 90.0° (Epoch: 19 January)

Event Time Altitude Azimuth Distance (km) Brightness Sun altitude
Rises 17:33:50 0° 184° (S) 3,225 9.6 -11.1°
Reaches altitude 10° 17:36:15 10° 187° (S) 2,256 8.8 -11.4°
Maximum altitude 17:41:13 66° 269° (W) 767 6.3 -12.2°
Drops below altitude 10° 17:45:49 10° 353° (N) 2,095 8.2 -12.9°
Sets 17:48:00 0° 356° (N) 2,975 8.9 -13.3°
